• în România
  • Lista ţărilor
  • Pe 7 zile
  • Temperatura apei
  • Hartă satelitară
  • Meteo pe hartă
  • Widget-uri
  • user-avatar
    Intrare

    Meteo pe oră la Kamarang

    Astăzi, 19 Iunie, Marţi

    Timp Temperatura Precipitaţii Vânt Presiune Umiditate
    00:00 +21°C° 0,4 mm 0 m/s 715 mmHg 96%
    01:00 +20°C° 0,4 mm 0 m/s 715 mmHg 96%
    02:00 +20°C° 0,4 mm 0 m/s 715 mmHg 96%
    03:00 +20°C° 0,6 mm 0 m/s 714 mmHg 97%
    04:00 +20°C° 0,6 mm 0 m/s 714 mmHg 97%
    05:00 +20°C° 0,6 mm 0 m/s 714 mmHg 97%
    06:00 +21°C° 1 mm 0 m/s 715 mmHg 94%
    07:00 +22°C° 1 mm 0 m/s 715 mmHg 92%
    08:00 +23°C° 1 mm 0 m/s 716 mmHg 89%
    09:00 +24°C° 1,4 mm 0 m/s 715 mmHg 85%
    10:00 +25°C° 1,4 mm 0 m/s 715 mmHg 82%
    11:00 +28°C° 1,4 mm 1 m/s 715 mmHg 79%
    12:00 +29°C° 1,6 mm 1 m/s 715 mmHg 78%
    13:00 +29°C° 1,6 mm 1 m/s 714 mmHg 77%
    14:00 +29°C° 1,6 mm 1 m/s 714 mmHg 77%
    15:00 +28°C° 2,3 mm 1 m/s 713 mmHg 82%
    16:00 +27°C° 2,3 mm 1 m/s 713 mmHg 87%
    17:00 +26°C° 2,3 mm 1 m/s 713 mmHg 92%
    18:00 +25°C° 2,5 mm 1 m/s 713 mmHg 93%
    19:00 +24°C° 2,5 mm 1 m/s 714 mmHg 95%
    20:00 +23°C° 2,5 mm 1 m/s 714 mmHg 96%
    21:00 +23°C° 1,8 mm 1 m/s 714 mmHg 96%
    22:00 +23°C° 1,8 mm 1 m/s 715 mmHg 97%
    23:00 +21°C° 1,8 mm 0 m/s 715 mmHg 97%

    Mâine, 20 Iunie, Miercuri

    Timp Temperatura Precipitaţii Vânt Presiune Umiditate
    00:00 +20°C° 0,9 mm 0 m/s 715 mmHg 97%
    01:00 +20°C° 0,9 mm 0 m/s 714 mmHg 97%
    02:00 +20°C° 0,9 mm 0 m/s 714 mmHg 98%
    03:00 +20°C° 0,3 mm 0 m/s 714 mmHg 98%
    04:00 +20°C° 0,3 mm 0 m/s 714 mmHg 98%
    05:00 +19°C° 0,3 mm 0 m/s 714 mmHg 98%
    06:00 +20°C° 0,1 mm 0 m/s 714 mmHg 95%
    07:00 +21°C° 0,1 mm 0 m/s 715 mmHg 92%
    08:00 +22°C° 0,1 mm 0 m/s 715 mmHg 89%
    09:00 +24°C° 0,5 mm 0 m/s 716 mmHg 80%
    10:00 +28°C° 0,5 mm 1 m/s 716 mmHg 71%
    11:00 +30°C° 0,5 mm 1 m/s 716 mmHg 62%
    12:00 +30°C° 0,5 mm 1 m/s 715 mmHg 64%
    13:00 +30°C° 0,5 mm 1 m/s 714 mmHg 67%
    14:00 +30°C° 0,5 mm 1 m/s 714 mmHg 69%
    15:00 +29°C° 1 mm 1 m/s 713 mmHg 75%
    16:00 +28°C° 1 mm 1 m/s 713 mmHg 82%
    17:00 +27°C° 1 mm 1 m/s 713 mmHg 88%
    18:00 +26°C° 0,7 mm 1 m/s 713 mmHg 91%
    19:00 +22°C° 0,7 mm 0 m/s 714 mmHg 94%
    20:00 +21°C° 0,7 mm 0 m/s 714 mmHg 97%
    21:00 +21°C° 0,6 mm 0 m/s 715 mmHg 97%
    22:00 +20°C° 0,6 mm 0 m/s 715 mmHg 97%
    23:00 +20°C° 0,6 mm 0 m/s 715 mmHg 97%

    Poimâine, 21 Iunie, Joi

    Timp Temperatura Precipitaţii Vânt Presiune Umiditate
    00:00 +20°C° 0,6 mm 0 m/s 715 mmHg 98%
    01:00 +19°C° 0,6 mm 0 m/s 715 mmHg 98%
    02:00 +19°C° 0,6 mm 0 m/s 714 mmHg 98%
    03:00 +19°C° 0 mm 0 m/s 714 mmHg 98%
    04:00 +19°C° 0 mm 0 m/s 714 mmHg 98%
    05:00 +19°C° 0 mm 0 m/s 714 mmHg 98%
    06:00 +20°C° 0 mm 0 m/s 715 mmHg 95%
    07:00 +21°C° 0 mm 0 m/s 716 mmHg 91%
    08:00 +22°C° 0 mm 0 m/s 716 mmHg 88%
    09:00 +24°C° 0 mm 0 m/s 716 mmHg 77%
    10:00 +29°C° 0 mm 1 m/s 716 mmHg 65%
    11:00 +31°C° 0 mm 1 m/s 716 mmHg 54%
    12:00 +31°C° 0,3 mm 1 m/s 715 mmHg 55%
    13:00 +31°C° 0,3 mm 1 m/s 715 mmHg 56%
    14:00 +31°C° 0,3 mm 2 m/s 714 mmHg 57%
    15:00 +30°C° 0,9 mm 1 m/s 714 mmHg 67%
    16:00 +28°C° 0,9 mm 1 m/s 713 mmHg 77%
    17:00 +27°C° 0,9 mm 1 m/s 713 mmHg 88%
    18:00 +25°C° 1 mm 1 m/s 713 mmHg 91%
    19:00 +24°C° 1 mm 1 m/s 714 mmHg 94%
    20:00 +23°C° 1 mm 1 m/s 714 mmHg 97%
    21:00 +21°C° 0,7 mm 0 m/s 715 mmHg 97%
    22:00 +21°C° 0,7 mm 0 m/s 715 mmHg 98%
    23:00 +21°C° 0,7 mm 0 m/s 715 mmHg 98%

    22 Iunie, Vineri

    Timp Temperatura Precipitaţii Vânt Presiune Umiditate
    00:00 +20°C° 0,7 mm 0 m/s 715 mmHg 98%
    01:00 +20°C° 0,7 mm 0 m/s 714 mmHg 98%
    02:00 +20°C° 0,7 mm 0 m/s 714 mmHg 98%
    03:00 +20°C° 0,1 mm 0 m/s 714 mmHg 98%
    04:00 +20°C° 0,1 mm 0 m/s 714 mmHg 98%
    05:00 +20°C° 0,1 mm 0 m/s 714 mmHg 98%
    06:00 +20°C° 0 mm 0 m/s 714 mmHg 95%
    07:00 +21°C° 0 mm 0 m/s 715 mmHg 92%
    08:00 +22°C° 0 mm 0 m/s 715 mmHg 89%
    09:00 +26°C° 0 mm 1 m/s 715 mmHg 79%
    10:00 +28°C° 0 mm 1 m/s 715 mmHg 69%
    11:00 +30°C° 0 mm 1 m/s 715 mmHg 59%
    12:00 +30°C° 0,8 mm 1 m/s 715 mmHg 65%
    13:00 +29°C° 0,8 mm 1 m/s 714 mmHg 71%
    14:00 +29°C° 0,8 mm 1 m/s 713 mmHg 78%
    15:00 +28°C° 1,2 mm 1 m/s 713 mmHg 82%
    16:00 +27°C° 1,2 mm 1 m/s 712 mmHg 86%
    17:00 +26°C° 1,2 mm 1 m/s 712 mmHg 90%
    18:00 +25°C° 0,9 mm 1 m/s 713 mmHg 93%
    19:00 +24°C° 0,8 mm 1 m/s 713 mmHg 95%
    20:00 +21°C° 0,8 mm 0 m/s 713 mmHg 98%
    21:00 +21°C° 0,5 mm 0 m/s 714 mmHg 98%
    22:00 +21°C° 0,5 mm 0 m/s 714 mmHg 98%
    23:00 +21°C° 0,5 mm 0 m/s 714 mmHg 98%

    23 Iunie, Sâmbătă

    Timp Temperatura Precipitaţii Vânt Presiune Umiditate
    00:00 +20°C° 0,5 mm 0 m/s 714 mmHg 98%
    01:00 +20°C° 0,5 mm 0 m/s 713 mmHg 98%
    02:00 +20°C° 0,5 mm 0 m/s 713 mmHg 98%
    03:00 +20°C° 0,2 mm 0 m/s 713 mmHg 98%
    04:00 +20°C° 0,2 mm 0 m/s 713 mmHg 98%
    05:00 +20°C° 0,2 mm 0 m/s 713 mmHg 98%
    06:00 +21°C° 0,1 mm 0 m/s 714 mmHg 96%
    07:00 +21°C° 0,1 mm 0 m/s 714 mmHg 93%
    08:00 +24°C° 0,1 mm 1 m/s 715 mmHg 90%
    09:00 +26°C° 0,3 mm 1 m/s 715 mmHg 84%
    10:00 +27°C° 0,3 mm 1 m/s 714 mmHg 77%
    11:00 +29°C° 0,3 mm 1 m/s 714 mmHg 71%
    12:00 +28°C° 1,6 mm 1 m/s 714 mmHg 76%
    13:00 +28°C° 1,6 mm 1 m/s 713 mmHg 82%
    14:00 +27°C° 1,6 mm 1 m/s 712 mmHg 87%
    15:00 +27°C° 1,3 mm 1 m/s 712 mmHg 89%
    16:00 +26°C° 1,3 mm 1 m/s 712 mmHg 91%
    17:00 +26°C° 1,3 mm 1 m/s 712 mmHg 93%
    18:00 +25°C° 1,1 mm 1 m/s 712 mmHg 94%
    19:00 +24°C° 1,1 mm 1 m/s 713 mmHg 96%
    20:00 +23°C° 1,1 mm 1 m/s 713 mmHg 97%
    21:00 +23°C° 0,3 mm 1 m/s 713 mmHg 98%
    22:00 +22°C° 0,3 mm 1 m/s 714 mmHg 98%
    23:00 +20°C° 0,3 mm 0 m/s 714 mmHg 98%

    24 Iunie, Duminică

    Timp Temperatura Precipitaţii Vânt Presiune Umiditate
    00:00 +20°C° 0,1 mm 0 m/s 714 mmHg 98%
    01:00 +20°C° 0,1 mm 0 m/s 713 mmHg 98%
    02:00 +20°C° 0,1 mm 0 m/s 713 mmHg 98%
    03:00 +20°C° 0,2 mm 0 m/s 713 mmHg 98%
    04:00 +20°C° 0,2 mm 0 m/s 713 mmHg 98%
    05:00 +19°C° 0,2 mm 0 m/s 713 mmHg 98%
    06:00 +20°C° 0,3 mm 0 m/s 714 mmHg 97%
    07:00 +20°C° 0,3 mm 0 m/s 714 mmHg 96%
    08:00 +21°C° 0,3 mm 0 m/s 715 mmHg 95%
    09:00 +24°C° 0,3 mm 1 m/s 715 mmHg 89%
    10:00 +26°C° 0,3 mm 1 m/s 714 mmHg 84%
    11:00 +27°C° 0,3 mm 1 m/s 714 mmHg 78%
    12:00 +27°C° 0,6 mm 1 m/s 714 mmHg 80%
    13:00 +27°C° 0,6 mm 1 m/s 713 mmHg 81%
    14:00 +28°C° 0,6 mm 1 m/s 712 mmHg 82%
    15:00 +27°C° 0,9 mm 1 m/s 712 mmHg 87%
    16:00 +26°C° 0,9 mm 1 m/s 712 mmHg 91%
    17:00 +26°C° 0,9 mm 1 m/s 712 mmHg 95%
    18:00 +25°C° 0,8 mm 1 m/s 712 mmHg 96%
    19:00 +24°C° 0,8 mm 1 m/s 713 mmHg 97%
    20:00 +23°C° 0,8 mm 1 m/s 713 mmHg 99%
    21:00 +23°C° 0,5 mm 1 m/s 713 mmHg 99%
    22:00 +23°C° 0,5 mm 1 m/s 714 mmHg 99%
    23:00 +23°C° 0,5 mm 1 m/s 714 mmHg 99%
    Arată mai mult